Regional Weather Roundup
Issued by NWS

Home | Current Version | Previous Version | Graphics & Text | Print | Product List | Glossary On
Versions: 1 2 3 4 5 6 7 8 9 10 11 12 13 14 15 16 17 18 19 20 21 22 23 24 25 26 27 28 29 30 31 32 33 34 35 36 37 38 39 40 41 42 43 44 45 46 47 48 49 50
000
ASUS43 KLMK 071802
RWRKY
KENTUCKY REGIONAL WEATHER ROUNDUP
NATIONAL WEATHER SERVICE LOUISVILLE KY
200 PM EDT TUE JUL 07 2015

NOTE "FAIR" INDICATES FEW OR NO CLOUDS BELOW 12,000 FEET
WITH NO SIGNIFICANT WEATHER AND/OR OBSTRUCTIONS TO VISIBILITY.

KYZ001>023-026-027-061>063-070>075-071900-
WESTERN AND SOUTH CENTRAL KENTUCKY

CITY           SKY/WX    TMP DP  RH WIND       PRES   REMARKS
PADUCAH        CLOUDY    82  74  76 SW13G18   29.98S
HENDERSON      CLOUDY    73  70  88 W8        29.99S
OWENSBORO      LGT RAIN  74  73  96 W9        29.99F
HOPKINSVILLE   CLOUDY    85  72  65 SW17      30.02F HX  91
BOWLING GREEN  CLOUDY    88  70  55 SW20G25   30.03F HX  93
GLASGOW        NOT AVBL
$$

KYZ024-025-028>034-038-045-046-053-071900-
NORTH CENTRAL KENTUCKY

CITY           SKY/WX    TMP DP  RH WIND       PRES   REMARKS
LOUISVILLE/SDF LGT RAIN  76  73  91 S9        29.98F
LOUISVILLE/LOU LGT RAIN  74  73  97 S6        29.99F FOG
FORT KNOX      CLOUDY    80  73  81 SW9       29.98F
$$

KYZ035>037-039>044-047>052-055>060-089>105-071900-
NORTHEAST KENTUCKY

CITY           SKY/WX    TMP DP  RH WIND       PRES   REMARKS
LEXINGTON      CLOUDY    76  72  87 SW7       30.03F
COVINGTON      CLOUDY    79  71  76 SW10G18   29.97R
FRANKFORT      LGT RAIN  74  70  87 SW10      30.01F
$$

KYZ054-064>069-076>088-106>120-071900-
SOUTHEAST KENTUCKY

CITY           SKY/WX    TMP DP  RH WIND       PRES   REMARKS
JACKSON        LGT RAIN  75  71  87 CALM      30.09S FOG
LONDON         PTSUNNY   87  67  51 SW16G25   30.08F HX  90
SOMERSET       NOT AVBL
MIDDLESBORO    MOSUNNY   85  71  62 S8G16     30.11F HX  90
MONTICELLO     CLOUDY    86  74  67 SW8G18    30.10F HX  94
$$



USA.gov is the U.S. government's official web portal to all federal, state and local government web resources and services.